When you browse on this site, cookies collect data to enhance your experience and personalize the content and advertising you see.
Visit our Privacy Policy to learn more. By continuing to use the site, you agree to this use of cookies and data.
  • In Österreich
  • Länderverzeichnis
  • Für 7 Tage
  • Wassertemperatur
  • Satellitenkarten
  • Wetterkarte
  • News
  • Widgets
  • user-avatar
    Anmelden

    Stündliche Wetter Baraki Barak

    Heute, 20 April, Samstag

    Zeit Temperatur Niederschläge Wind Luftdruck Luftfeuchtigkeit
    00:00 +16°C° 0.2 mm 2 m/S 599 mmHg 42%
    01:00 +16°C° 0.2 mm 1 m/S 598 mmHg 43%
    02:00 +15°C° 0.2 mm 1 m/S 598 mmHg 44%
    03:00 +14°C° 0 mm 1 m/S 598 mmHg 46%
    04:00 +14°C° 0 mm 1 m/S 597 mmHg 47%
    05:00 +13°C° 0 mm 2 m/S 597 mmHg 45%
    06:00 +13°C° 0 mm 2 m/S 597 mmHg 44%
    07:00 +14°C° 0 mm 1 m/S 597 mmHg 43%
    08:00 +14°C° 0 mm 1 m/S 598 mmHg 42%
    09:00 +16°C° 0 mm 1 m/S 598 mmHg 39%
    10:00 +18°C° 0 mm 1 m/S 598 mmHg 36%
    11:00 +19°C° 0 mm 1 m/S 598 mmHg 34%
    12:00 +20°C° 0 mm 1 m/S 598 mmHg 30%
    13:00 +21°C° 0 mm 1 m/S 598 mmHg 27%
    14:00 +22°C° 0 mm 1 m/S 598 mmHg 24%
    15:00 +23°C° 0 mm 1 m/S 598 mmHg 22%
    16:00 +23°C° 0 mm 2 m/S 598 mmHg 21%
    17:00 +23°C° 0 mm 2 m/S 598 mmHg 20%
    18:00 +21°C° 0.1 mm 2 m/S 598 mmHg 24%
    19:00 +20°C° 0.1 mm 2 m/S 598 mmHg 28%
    20:00 +20°C° 0.1 mm 2 m/S 598 mmHg 33%
    21:00 +19°C° 0 mm 2 m/S 598 mmHg 38%
    22:00 +17°C° 0 mm 2 m/S 598 mmHg 43%
    23:00 +16°C° 0 mm 2 m/S 598 mmHg 48%

    Morgen, 21 April, Sonntag

    Zeit Temperatur Niederschläge Wind Luftdruck Luftfeuchtigkeit
    00:00 +16°C° 0 mm 2 m/S 598 mmHg 51%
    01:00 +15°C° 0 mm 2 m/S 597 mmHg 54%
    02:00 +14°C° 0 mm 1 m/S 597 mmHg 56%
    03:00 +14°C° 0 mm 1 m/S 597 mmHg 58%
    04:00 +13°C° 0 mm 1 m/S 596 mmHg 60%
    05:00 +13°C° 0 mm 1 m/S 596 mmHg 62%
    06:00 +14°C° 0 mm 1 m/S 597 mmHg 56%
    07:00 +14°C° 0 mm 1 m/S 597 mmHg 50%
    08:00 +15°C° 0 mm 1 m/S 598 mmHg 43%
    09:00 +18°C° 0 mm 1 m/S 598 mmHg 38%
    10:00 +19°C° 0 mm 1 m/S 599 mmHg 34%
    11:00 +20°C° 0 mm 1 m/S 599 mmHg 29%
    12:00 +21°C° 0 mm 1 m/S 599 mmHg 27%
    13:00 +21°C° 0 mm 2 m/S 599 mmHg 25%
    14:00 +23°C° 0 mm 2 m/S 599 mmHg 23%
    15:00 +22°C° 0 mm 3 m/S 599 mmHg 23%
    16:00 +24°C° 0 mm 3 m/S 599 mmHg 23%
    17:00 +23°C° 0 mm 4 m/S 599 mmHg 23%
    18:00 +22°C° 0 mm 3 m/S 599 mmHg 27%
    19:00 +21°C° 0 mm 3 m/S 599 mmHg 30%
    20:00 +20°C° 0 mm 2 m/S 599 mmHg 33%
    21:00 +19°C° 0 mm 2 m/S 599 mmHg 38%
    22:00 +18°C° 0 mm 2 m/S 599 mmHg 42%
    23:00 +17°C° 0 mm 2 m/S 599 mmHg 46%

    übermorgen, 22 April, Montag

    Zeit Temperatur Niederschläge Wind Luftdruck Luftfeuchtigkeit
    00:00 +17°C° 0 mm 2 m/S 598 mmHg 49%
    01:00 +16°C° 0 mm 1 m/S 598 mmHg 51%
    02:00 +15°C° 0 mm 1 m/S 597 mmHg 54%
    03:00 +15°C° 0 mm 1 m/S 597 mmHg 55%
    04:00 +14°C° 0 mm 1 m/S 597 mmHg 56%
    05:00 +13°C° 0 mm 1 m/S 597 mmHg 56%
    06:00 +14°C° 0 mm 1 m/S 597 mmHg 51%
    07:00 +15°C° 0 mm 1 m/S 598 mmHg 45%
    08:00 +16°C° 0 mm 1 m/S 599 mmHg 39%
    09:00 +19°C° 0 mm 1 m/S 599 mmHg 35%
    10:00 +20°C° 0 mm 1 m/S 600 mmHg 31%
    11:00 +21°C° 0 mm 1 m/S 600 mmHg 26%
    12:00 +22°C° 0 mm 1 m/S 600 mmHg 23%
    13:00 +23°C° 0 mm 1 m/S 600 mmHg 20%
    14:00 +24°C° 0 mm 1 m/S 601 mmHg 16%
    15:00 +24°C° 0 mm 2 m/S 600 mmHg 16%
    16:00 +25°C° 0 mm 3 m/S 600 mmHg 15%
    17:00 +25°C° 0 mm 3 m/S 600 mmHg 15%
    18:00 +24°C° 0 mm 3 m/S 600 mmHg 18%
    19:00 +23°C° 0 mm 2 m/S 600 mmHg 22%
    20:00 +20°C° 0 mm 2 m/S 600 mmHg 26%
    21:00 +20°C° 0 mm 2 m/S 600 mmHg 28%
    22:00 +19°C° 0 mm 2 m/S 600 mmHg 31%
    23:00 +18°C° 0 mm 2 m/S 600 mmHg 33%

    23 April, Dienstag

    Zeit Temperatur Niederschläge Wind Luftdruck Luftfeuchtigkeit
    00:00 +18°C° 0 mm 1 m/S 600 mmHg 35%
    01:00 +18°C° 0 mm 1 m/S 599 mmHg 37%
    02:00 +16°C° 0 mm 1 m/S 599 mmHg 39%
    03:00 +16°C° 0 mm 1 m/S 599 mmHg 39%
    04:00 +15°C° 0 mm 1 m/S 598 mmHg 40%
    05:00 +15°C° 0 mm 1 m/S 598 mmHg 40%
    06:00 +16°C° 0 mm 1 m/S 599 mmHg 35%
    07:00 +18°C° 0 mm 1 m/S 599 mmHg 31%
    08:00 +18°C° 0 mm 1 m/S 600 mmHg 27%
    09:00 +20°C° 0 mm 1 m/S 600 mmHg 26%
    10:00 +21°C° 0 mm 1 m/S 601 mmHg 24%
    11:00 +22°C° 0 mm 1 m/S 601 mmHg 23%
    12:00 +23°C° 0 mm 2 m/S 601 mmHg 23%
    13:00 +24°C° 0 mm 3 m/S 601 mmHg 24%
    14:00 +23°C° 0 mm 4 m/S 601 mmHg 24%
    15:00 +25°C° 0 mm 3 m/S 601 mmHg 25%
    16:00 +25°C° 0 mm 3 m/S 600 mmHg 25%
    17:00 +25°C° 0 mm 3 m/S 600 mmHg 26%
    18:00 +22°C° 0.1 mm 3 m/S 600 mmHg 31%
    19:00 +21°C° 0.1 mm 3 m/S 600 mmHg 35%
    20:00 +20°C° 0.1 mm 3 m/S 599 mmHg 40%
    21:00 +19°C° 0 mm 3 m/S 599 mmHg 42%
    22:00 +18°C° 0 mm 2 m/S 599 mmHg 45%
    23:00 +18°C° 0 mm 2 m/S 599 mmHg 47%

    24 April, Mittwoch

    Zeit Temperatur Niederschläge Wind Luftdruck Luftfeuchtigkeit
    00:00 +17°C° 0.1 mm 2 m/S 599 mmHg 49%
    01:00 +17°C° 0.1 mm 2 m/S 598 mmHg 50%
    02:00 +16°C° 0.1 mm 2 m/S 598 mmHg 52%
    03:00 +15°C° 1.1 mm 2 m/S 598 mmHg 57%
    04:00 +15°C° 1.1 mm 1 m/S 598 mmHg 63%
    05:00 +14°C° 1.1 mm 1 m/S 598 mmHg 68%
    06:00 +14°C° 0.4 mm 1 m/S 598 mmHg 68%
    07:00 +15°C° 0.4 mm 1 m/S 598 mmHg 67%
    08:00 +15°C° 0.4 mm 1 m/S 599 mmHg 67%
    09:00 +16°C° 0.1 mm 2 m/S 599 mmHg 63%
    10:00 +17°C° 0.1 mm 2 m/S 599 mmHg 60%
    11:00 +18°C° 0.1 mm 2 m/S 599 mmHg 56%
    12:00 +17°C° 1.4 mm 2 m/S 599 mmHg 60%
    13:00 +16°C° 1.4 mm 3 m/S 598 mmHg 65%
    14:00 +16°C° 1.4 mm 3 m/S 598 mmHg 69%
    15:00 +16°C° 0.1 mm 3 m/S 598 mmHg 65%
    16:00 +17°C° 0.1 mm 3 m/S 598 mmHg 60%
    17:00 +17°C° 0.1 mm 3 m/S 598 mmHg 55%
    18:00 +17°C° 0.1 mm 3 m/S 598 mmHg 59%
    19:00 +16°C° 0.1 mm 3 m/S 597 mmHg 63%
    20:00 +14°C° 0.1 mm 3 m/S 597 mmHg 67%
    21:00 +14°C° 0 mm 3 m/S 597 mmHg 69%
    22:00 +13°C° 0 mm 3 m/S 597 mmHg 71%
    23:00 +13°C° 0 mm 2 m/S 597 mmHg 74%

    25 April, Donnerstag

    Zeit Temperatur Niederschläge Wind Luftdruck Luftfeuchtigkeit
    00:00 +13°C° 0 mm 2 m/S 597 mmHg 74%
    01:00 +12°C° 0 mm 2 m/S 596 mmHg 75%
    02:00 +12°C° 0 mm 2 m/S 596 mmHg 76%
    03:00 +12°C° 0 mm 1 m/S 596 mmHg 76%
    04:00 +11°C° 0 mm 1 m/S 596 mmHg 76%
    05:00 +11°C° 0 mm 1 m/S 596 mmHg 76%
    06:00 +12°C° 0 mm 1 m/S 596 mmHg 68%
    07:00 +13°C° 0 mm 1 m/S 597 mmHg 61%
    08:00 +13°C° 0 mm 1 m/S 598 mmHg 54%
    09:00 +15°C° 0 mm 2 m/S 599 mmHg 46%
    10:00 +16°C° 0 mm 2 m/S 599 mmHg 38%
    11:00 +17°C° 0 mm 2 m/S 600 mmHg 30%
    12:00 +19°C° 0 mm 4 m/S 600 mmHg 28%
    13:00 +20°C° 0 mm 5 m/S 600 mmHg 27%
    14:00 +21°C° 0 mm 6 m/S 600 mmHg 25%
    15:00 +21°C° 0 mm 7 m/S 600 mmHg 24%
    16:00 +21°C° 0 mm 8 m/S 600 mmHg 23%
    17:00 +21°C° 0 mm 8 m/S 600 mmHg 22%
    18:00 +20°C° 0 mm 6 m/S 599 mmHg 26%
    19:00 +19°C° 0 mm 5 m/S 599 mmHg 30%
    20:00 +17°C° 0 mm 3 m/S 599 mmHg 34%
    21:00 +17°C° 0 mm 3 m/S 599 mmHg 37%
    22:00 +16°C° 0 mm 2 m/S 599 mmHg 41%
    23:00 +15°C° 0 mm 2 m/S 599 mmHg 44%
    Mehr zeigen